Regional Weather Roundup
Issued by NWS

Home | Current Version | Previous Version | Graphics & Text | Print | Product List | Glossary On
Versions: 1 2 3 4 5 6 7 8 9 10 11 12 13 14 15 16 17 18 19 20 21 22 23 24 25 26 27 28 29 30 31 32 33 34 35 36 37 38 39 40 41 42 43 44 45 46 47 48 49 50
247
ASUS43 KLMK 251410
RWRKY
KENTUCKY REGIONAL WEATHER ROUNDUP
NATIONAL WEATHER SERVICE LOUISVILLE KY
1000 AM EDT MON SEP 25 2017

NOTE "FAIR" INDICATES FEW OR NO CLOUDS BELOW 12,000 FEET
WITH NO SIGNIFICANT WEATHER AND/OR OBSTRUCTIONS TO VISIBILITY.

KYZ001>023-026-027-061>063-070>075-251500-
WESTERN AND SOUTH CENTRAL KENTUCKY

CITY           SKY/WX    TMP DP  RH WIND       PRES   REMARKS
PADUCAH        SUNNY     75  67  76 CALM      30.03S
HENDERSON      MOSUNNY   79  70  74 CALM      30.04S
OWENSBORO      MOSUNNY   74  69  85 CALM      30.05R
HOPKINSVILLE   SUNNY     78  69  72 CALM      30.05S
BOWLING GREEN  SUNNY     72  70  93 CALM      30.06S
GLASGOW        SUNNY    N/A N/A N/A CALM      30.06S
$$

KYZ024-025-028>034-038-045-046-053-251500-
NORTH CENTRAL KENTUCKY

CITY           SKY/WX    TMP DP  RH WIND       PRES   REMARKS
LOUISVILLE/SDF MOSUNNY   76  65  68 CALM      30.05S
LOUISVILLE/LOU SUNNY     75  68  78 CALM      30.06S
FORT KNOX      SUNNY     77  67  71 S3        30.05R
$$

KYZ035>037-039>044-047>052-055>060-089>105-251500-
NORTHEAST KENTUCKY

CITY           SKY/WX    TMP DP  RH WIND       PRES   REMARKS
LEXINGTON      CLOUDY    74  64  71 SE5       30.08S
COVINGTON      MOSUNNY   75  64  68 CALM      30.08R
FRANKFORT      SUNNY     72  63  73 CALM      30.07R
$$

KYZ054-064>069-076>088-106>120-251500-
SOUTHEAST KENTUCKY

CITY           SKY/WX    TMP DP  RH WIND       PRES   REMARKS
JACKSON        PTSUNNY   68  62  81 CALM      30.10R
LONDON         PTSUNNY   67  63  87 CALM      30.10R
SOMERSET       CLOUDY    68  66  94 CALM      30.10R
MIDDLESBORO    PTSUNNY   61  61 100 CALM      30.12S
MONTICELLO     CLOUDY    70  67  90 CALM      30.10R
$$





USA.gov is the U.S. government's official web portal to all federal, state and local government web resources and services.